Estación de Peumo Norte

Ultimos registro cada 15 minutos 74
Estación Fecha / Hora Temperatura Humedad Lluvia Velocidad Dirección Radiación Presion
74 Peumo Norte 03-05-2026 18:15 15,3 64,3 0 0 351 0,6 1001,6
73 Peumo Norte 03-05-2026 18:00 18,6 49,6 0 0 6 6,9 1001,4
72 Peumo Norte 03-05-2026 17:45 20,7 44,7 0 0 4 14,4 1001,2
71 Peumo Norte 03-05-2026 17:30 23,7 30,8 0 0 3 24,4 1001,2
70 Peumo Norte 03-05-2026 17:15 25 25,8 0 0 3 55,6 1001,2
69 Peumo Norte 03-05-2026 17:00 26,1 25,4 0 0 1 111,9 1000,9
68 Peumo Norte 03-05-2026 16:45 25,8 25,5 0 0,5 13 140,6 1000,8
67 Peumo Norte 03-05-2026 16:30 26 26,7 0 0,5 22 155,6 1000,7
66 Peumo Norte 03-05-2026 16:15 25,8 28,6 0 0,5 7 280,6 1000,8
65 Peumo Norte 03-05-2026 16:00 25,5 29,2 0 1 1 264,4 1001,1
64 Peumo Norte 03-05-2026 15:45 25,4 31 0 1 351 308,1 1001
63 Peumo Norte 03-05-2026 15:30 24,5 32,4 0 1 3 224,4 1001,1
62 Peumo Norte 03-05-2026 15:15 24,8 33,2 0 1 355 415,6 1001,1
61 Peumo Norte 03-05-2026 15:00 23,4 38,3 0 1 350 319,4 1001
60 Peumo Norte 03-05-2026 14:45 24,9 37,8 0 1 357 211,9 1001,2
59 Peumo Norte 03-05-2026 14:30 24,2 39,6 0 0,5 316 439,4 1001,3
58 Peumo Norte 03-05-2026 14:15 23,9 38,4 0 0,5 289 425,6 1001,1
57 Peumo Norte 03-05-2026 14:00 23,5 41,6 0 0 247 386,9 1001,2
56 Peumo Norte 03-05-2026 13:45 22,9 44 0 0,5 265 296,9 1001,3
55 Peumo Norte 03-05-2026 13:30 22,8 46,4 0 0,5 239 458,1 1001,4
54 Peumo Norte 03-05-2026 13:15 22,2 50,8 0 0,5 223 503,1 1001,6
53 Peumo Norte 03-05-2026 13:00 23 49,5 0 0 317 501,9 1001,8
52 Peumo Norte 03-05-2026 12:45 21,7 53,5 0 0,5 320 319,4 1002,1
51 Peumo Norte 03-05-2026 12:30 21,4 55,4 0 0 195 565,6 1002,2
50 Peumo Norte 03-05-2026 12:15 20,3 59,1 0 0 72 540,6 1002,3
49 Peumo Norte 03-05-2026 12:00 19,8 62,3 0 0 270 491,9 1002,6
48 Peumo Norte 03-05-2026 11:45 18,7 63 0 0 205 498,1 1002,9
47 Peumo Norte 03-05-2026 11:30 18,5 64,3 0 0 218 443,1 1003,2
46 Peumo Norte 03-05-2026 11:15 17,8 69,5 0 0 154 520,6 1003,2
45 Peumo Norte 03-05-2026 11:00 17,1 73,5 0 0 154 368,1 1003,6
44 Peumo Norte 03-05-2026 10:45 16,3 79,2 0 0 156 419,4 1003,5
43 Peumo Norte 03-05-2026 10:30 14,5 84,9 0 0 154 400,6 1003,5
42 Peumo Norte 03-05-2026 10:15 14,1 91,2 0 0 181 378,1 1003,6
41 Peumo Norte 03-05-2026 10:00 13,6 92,2 0 0 223 351,9 1003,5
40 Peumo Norte 03-05-2026 09:45 11,5 94,3 0 0 213 321,9 1003,6
39 Peumo Norte 03-05-2026 09:30 10,8 94,7 0 0 117 291,9 1003,6
38 Peumo Norte 03-05-2026 09:15 9,4 96,1 0 0 115 253,1 1003,7
37 Peumo Norte 03-05-2026 09:00 8 96,1 0 0 115 208,1 1003,9
36 Peumo Norte 03-05-2026 08:45 7,4 96,6 0 0 115 175,6 1003,6
35 Peumo Norte 03-05-2026 08:30 5,6 96,2 0 0 115 140,6 1003,3
34 Peumo Norte 03-05-2026 08:15 3,3 97,2 0 0 115 108,1 1003,3
33 Peumo Norte 03-05-2026 08:00 2,9 96,9 0 0 115 9,4 1003,3
32 Peumo Norte 03-05-2026 07:45 3,1 96,8 0 0 115 5,6 1003,1
31 Peumo Norte 03-05-2026 07:30 2,5 96,6 0 0 115 3,1 1002,7
30 Peumo Norte 03-05-2026 07:15 2,3 96,3 0 0 115 0,6 1002,8
29 Peumo Norte 03-05-2026 07:00 3,4 96,3 0 0 115 0,6 1002,4
28 Peumo Norte 03-05-2026 06:45 4,4 96,7 0 0 110 0,6 1002,4
27 Peumo Norte 03-05-2026 06:30 3,1 96,1 0 0 110 0,6 1002,2
26 Peumo Norte 03-05-2026 06:15 5,2 96,3 0 0 110 0,6 1002,5
25 Peumo Norte 03-05-2026 06:00 3,5 96 0 0 110 0,6 1002,2
24 Peumo Norte 03-05-2026 05:45 4,9 95,1 0 0 110 0,6 1002,4
23 Peumo Norte 03-05-2026 05:30 5,2 96,1 0 0 110 0,6 1002,6
22 Peumo Norte 03-05-2026 05:15 3,9 96 0 0 191 0,6 1002,6
21 Peumo Norte 03-05-2026 05:00 4,6 95,4 0 0 178 0,6 1002,8
20 Peumo Norte 03-05-2026 04:45 5,6 95,5 0 0 128 0,6 1002,6
19 Peumo Norte 03-05-2026 04:30 4 95,5 0 0 125 0,6 1003
18 Peumo Norte 03-05-2026 04:15 4,6 95,3 0 0 125 0,6 1002,7
17 Peumo Norte 03-05-2026 04:00 4,8 95,1 0 0 126 0,6 1002,7
16 Peumo Norte 03-05-2026 03:45 5,7 94,1 0 0 125 0,6 1002,6
15 Peumo Norte 03-05-2026 03:30 5,9 94,6 0 0 133 0,6 1002,6
14 Peumo Norte 03-05-2026 03:15 6 93,8 0 0 131 0,6 1002,9
13 Peumo Norte 03-05-2026 03:00 7,1 94,3 0 0 133 0,6 1002,9
12 Peumo Norte 03-05-2026 02:45 5,7 93,5 0 0 135 0,6 1003,2
11 Peumo Norte 03-05-2026 02:30 5,6 93,1 0 0 135 0,6 1003
10 Peumo Norte 03-05-2026 02:15 5,7 92,9 0 0 135 0,6 1003
9 Peumo Norte 03-05-2026 02:00 7,3 92,7 0 0 135 0,6 1002,7
8 Peumo Norte 03-05-2026 01:45 7,4 92,4 0 0 133 0,6 1002,6
7 Peumo Norte 03-05-2026 01:30 7 92,3 0 0 133 0,6 1002,7
6 Peumo Norte 03-05-2026 01:15 7,4 92,4 0 0 132 0,6 1002,5
5 Peumo Norte 03-05-2026 01:00 7,7 90,7 0 0 131 0,6 1002,6
4 Peumo Norte 03-05-2026 00:45 8,3 90,5 0 0 126 0,6 1002,2
3 Peumo Norte 03-05-2026 00:30 7,7 89,6 0 0 126 0,6 1002,1
2 Peumo Norte 03-05-2026 00:15 9,2 89,8 0 0 126 0,6 1002,2
1 Peumo Norte 03-05-2026 00:00 9,6 90,3 0 0 126 0,6 1002,1